SCP
0 0 0 0 0 0 0 0 0 0 0 0 0 0 0 0 0 0 0 0 0 0 0 0 0 0 0 0 0 0 0 0 0 0 0 0 0 0 0 0 0 0 0
0 0 0 0 0 0 0 0 0 0 0 0 0 0 0 0 0 0 0 0 0 0 0 0 0 0 0 0 0 0 0 0 0 0 0 0 0 0 0 0 0 0 0
0 0 0 0 0 0 0 0 0 0 0 0 0 0 0 0 0 0 0 0 0 0 0 0 0 0 0 0 0 0 0 0 0 0 0 0 0 0 0 0 0 0 0
0 0 0 0 0 0 0 0 0 0 0 0 0 0 0 0 0 0 0 0 0 0 0 0 0 0 0 0 0 0 0 0 0 0 0 0 0 0 0 0 0 0 0
0 0 0 0 0 0 0 0 0 0 0 0 0 0 0 0 0 0 0 0 0 0 0 0 0 0 0 0 0 0 0 0 0 0 0 0 0 0 0 0 0 0 0
0 0 0 0 0 0 0 0 0 0 0 0 0 0 0 0 0 0 0 0 0 0 0 0 0 0 0 0 0 0 0 0 0 0 0 0 0 0 0 0 0 0 0
0 0 0 0 0 0 0 0 0 0 0 0 0 0 0 0 0 0 0 0 0 0 0 0 0 0 0 0 0 0 0 0 0 0 0 0 0 0 0 0 0 0 0
0 0 0 0 0 0 0 0 0 0 0 0 0 0 0 0 0 0 0 0 0 0 0 0 0 0 0 0 0 0 0 0 0 0 0 0 0 0 0 0 0 0 0
0 0 0 0 0 0 0 0 0 0 0 0 0 0 0 0 0 0 0 0 0 0 0 0 0 0 0 0 0 0 0 0 0 0 0 0 0 0 0 0 0 0 0
0 0 0 0 0 0 0 0 0 0 0 0 0 0 0 0 0 0 0 0 0 0 0 0 0 0 0 0 0 0 0 0 0 0 0 0 0 0 0 0 0 0 0
0 0 0 0 0 0 0 0 0 0 0 0 0 0 0 0 0 0 0 0 0 0 0 0 0 0 0 0 0 0 0 0 0 0 0 0 0 0 0 0 0 0 0
0 0 0 0 0 0 0 0 0 0 0 0 0 0 0 0 0 0 0 0 0 0 0 0 0 0 0 0 0 0 0 0 0 0 0 0 0 0 0 0 0 0 0
0 0 0 0 0 0 0 0 0 0 0 0 0 0 0 0 0 0 0 0 0 0 0 0 0 0 0 0 0 0 0 0 0 0 0 0 0 0 0 0 0 0 0
0 0 0 0 0 0 0 0 0 0 0 0 0 0 0 0 0 0 0 0 0 0 0 0 0 0 0 0 0 0 0 0 0 0 0 0 0 0 0 0 0 0 0
0 0 0 0 0 0 0 0 0 0 0 0 0 0 0 0 0 0 0 0 0 0 0 0 0 0 0 0 0 0 0 0 0 0 0 0 0 0 0 0 0 0 0
0 0 0 0 0 0 0 0 0 0 0 0 0 0 0 0 0 0 0 0 0 0 0 0 0 0 0 0 0 0 0 0 0 0 0 0 0 0 0 0 0 0 0
0 0 0 0 0 0 0 0 0 0 0 0 0 0 0 0 0 0 0 0 0 0 0 0 0 0 0 0 0 0 0 0 0 0 0 0 0 0 0 0 0 0 0
0 0 0 0 0 0 0 0 0 0 0 0 0 0 0 0 0 0 0 0 0 0 0 0 0 0 0 0 0 0 0 0 0 0 0 0 0 0 0 0 0 0 0
0 0 0 0 0 0 0 0 0 0 0 0 0 0 0 0 0 0 0 0 0 0 0 0 0 0 0 0 0 0 0 0 0 0 0 0 0 0 0 0 0 0 0
0 0 0 0 0 0 0 0 0 0 0 0 0 0 0 0 0 0 0 0 0 0 0 0 0 0 0 0 0 0 0 0 0 0 0 0 0 0 0 0 0 0 0
0 0 0 0 0 0 0 0 0 0 0 0 0 0 0 0 0 0 0 0 0 0 0 0 0 0 0 0 0 0 0 0 0 0 0 0 0 0 0 0 0 0 0
0 0 0 0 0 0 0 0 0 0 0 0 0 0 0 0 0 0 0 0 0 0 0 0 0 0 0 0 0 0 0 0 0 0 0 0 0 0 0 0 0 0 0
0 0 0 0 0 0 0 0 0 0 0 0 0 0 0 0 0 0 0 0 0 0 0 0 0 0 0 0 0 0 0 0 0 0 0 0 0 0 0 0 0 0 0
0 0 0 0 0 0 0 0 0 0 0 0 0 0 0 0 0 0 0 0 0 0 0 0 0 0 0 0 0 0 0 0 0 0 0 0 0 0 0 0 0 0 0
0 0 0 0 0 0 0 0 0 0 0 0 0 0 0 0 0 0 0 0 0 0 0 0 0 0 0 0 0 0 0 0 0 0 0 0 0 0 0 0 0 0 0
0 0 0 0 0 0 0 0 0 0 0 0 0 0 0 0 0 0 0 0 0 0 0 0 0 0 0 0 0 0 0 0 0 0 0 0 0 0 0 0 0 0 0
Wind_Speed
7 7 6 6 6 5 5 5 5 5 4 4 4 3 3 4 3 3 4 8 7 5 5 5 5 5 5 5 5 4 4 5 5 4 4 4 4 4 3 3 3 2 2
6 7 6 6 5 5 5 5 5 4 3 2 2 2 2 2 2 2 3 5 7 6 5 5 5 5 5 5 5 4 3 3 4 4 4 4 4 4 4 4 3 3 2
7 6 6 5 4 5 5 3 3 2 2 2 2 2 1 1 0 1 2 3 4 5 5 5 4 4 4 4 4 4 3 2 2 3 3 4 4 5 5 5 5 4 4
7 6 5 5 5 4 4 3 2 2 2 2 2 2 1 1 1 1 0 2 2 2 3 4 3 2 3 3 3 3 1 1 1 1 2 3 4 5 5 6 5 5 5
8 5 5 4 5 4 3 3 2 2 2 2 2 1 1 1 2 1 0 1 2 2 2 3 3 1 1 2 2 1 1 1 1 2 2 3 4 5 5 6 6 6 6
8 6 5 5 5 4 3 3 3 2 2 2 1 1 1 2 2 1 1 1 2 2 2 2 1 1 1 1 1 1 1 2 2 1 2 3 4 4 5 5 5 6 6
8 6 5 5 5 4 5 5 3 3 2 2 1 1 2 3 2 2 1 1 2 2 2 2 2 2 1 2 2 2 2 3 2 2 2 2 3 4 4 5 5 5 6
7 6 6 5 5 4 5 5 4 3 2 3 3 2 1 1 1 2 2 2 2 2 2 3 3 2 2 2 3 5 4 4 4 3 3 3 3 4 5 5 6 6 6
7 6 6 5 5 5 4 4 4 4 3 2 2 3 2 3 1 1 2 2 2 2 2 2 2 3 3 3 3 5 6 6 5 4 4 3 4 4 5 6 6 6 6
6 6 6 5 5 4 4 4 4 3 4 3 2 1 1 1 2 1 1 2 3 3 3 2 2 2 3 3 4 6 6 5 5 5 4 4 4 5 5 6 6 7 6
5 6 6 5 5 4 5 5 4 4 3 3 3 2 2 1 1 2 2 1 1 1 2 3 2 2 3 3 3 4 6 6 6 6 5 5 5 6 7 7 7 7 7
4 5 6 5 5 5 5 5 5 5 4 4 3 3 3 2 2 3 3 2 2 1 1 2 2 2 2 3 4 5 5 6 6 6 6 7 8 8 8 8 8 9 8
3 5 5 5 5 5 5 5 5 5 5 5 4 3 3 2 2 2 2 2 1 1 1 1 2 3 3 2 3 4 4 5 6 6 6 7 8 8 8 8 9 9 9
3 4 5 5 5 6 5 5 4 4 4 4 5 4 3 2 2 2 3 3 2 1 2 2 1 3 3 3 2 3 2 5 5 6 7 7 8 8 8 8 9 9 9
3 4 5 5 5 5 5 5 4 5 5 4 4 4 3 2 2 2 2 3 4 3 3 2 2 2 3 3 2 1 2 3 4 5 6 6 7 7 8 8 8 8 9
4 5 5 5 5 5 5 5 4 5 5 5 4 5 4 3 3 2 2 1 2 3 2 1 2 2 3 3 3 2 2 3 3 4 5 5 5 6 7 8 7 8 9
4 4 5 5 5 5 5 5 5 5 6 5 5 5 5 4 3 3 2 2 2 2 3 1 1 2 2 3 2 2 1 1 1 4 4 4 4 5 6 7 7 8 9
3 3 4 4 4 5 5 5 6 6 6 6 6 6 5 4 5 4 3 3 2 2 3 3 1 1 1 2 2 1 1 1 1 2 2 3 3 4 5 6 7 8 9
2 3 3 4 4 4 5 5 5 5 5 6 6 6 5 6 5 3 4 3 2 2 2 2 2 1 1 1 2 1 1 0 0 1 1 1 2 3 4 5 6 8 9
2 3 3 3 4 4 4 4 4 5 4 4 4 5 5 6 6 6 4 4 4 3 2 2 2 2 2 1 2 2 2 1 1 0 0 0 1 2 3 4 6 7 8
2 2 2 3 3 3 4 4 4 4 5 4 4 4 4 5 6 6 5 5 5 4 3 3 3 2 2 2 3 2 2 2 1 1 0 0 0 1 1 3 4 5 6
1 2 2 3 3 2 5 7 5 4 5 5 5 4 4 5 6 7 7 7 6 5 5 4 3 4 4 4 3 3 2 2 2 2 2 1 1 1 0 1 3 4 6
1 1 2 3 3 4 7 8 7 4 5 5 5 5 4 5 6 5 6 6 5 5 5 4 4 4 4 4 4 3 3 3 3 2 2 1 1 1 1 1 2 3 4
1 2 2 2 3 5 8 9 8 4 4 5 5 6 6 6 6 7 5 5 4 3 4 3 3 2 2 3 5 5 4 3 2 1 2 2 2 1 1 0 0 1 3
2 2 2 3 3 4 8 10 9 4 4 5 5 6 7 6 11 12 7 6 5 3 4 4 4 4 4 5 5 4 4 3 2 2 2 2 2 1 1 1 1 0 0
3 2 3 3 4 4 8 10 11 4 5 5 5 6 10 10 13 14 8 7 6 5 5 4 3 3 2 3 5 4 5 4 2 2 3 2 2 2 0 1 1 0 1
Wind_Direction
153 153 160 164 171 177 169 178 206 201 199 189 201 198 184 209 208 162 155 178 182 201 224 246 260 269 276 281 277 275 269 256 250 250 251 260 277 289 291 301 320 329 352
157 156 159 164 173 172 165 183 203 183 186 179 189 209 225 221 206 166 155 178 190 198 212 230 253 269 277 280 280 283 276 277 257 249 249 256 269 281 282 286 291 295 292
155 155 154 160 166 160 162 179 198 158 165 162 190 222 228 264 280 227 161 155 178 200 211 224 243 265 277 281 283 286 273 275 264 268 266 266 271 273 273 272 275 277 275
154 153 148 158 159 152 155 165 164 145 159 167 202 216 199 212 276 286 95 131 138 146 199 208 219 254 277 277 281 286 277 269 246 274 280 282 282 283 280 276 270 268 264
154 151 149 157 153 147 152 161 160 159 173 189 203 192 208 205 212 210 92 116 112 107 119 170 184 206 261 251 277 289 313 324 275 265 279 289 296 291 288 283 277 269 265
155 152 150 158 150 143 151 156 164 171 169 171 178 207 230 220 185 153 152 113 110 103 90 107 146 178 165 123 58 34 1 334 315 282 286 294 298 299 297 295 292 279 269
156 155 154 157 152 153 162 165 165 174 176 149 126 275 271 230 182 161 152 119 121 119 98 81 82 78 89 82 56 40 10 353 339 320 304 308 313 318 311 312 306 298 280
155 156 156 157 156 157 167 175 171 163 174 164 158 170 258 288 254 174 145 134 132 116 105 85 70 64 61 69 65 48 20 358 351 341 335 327 321 318 316 316 317 308 297
155 156 160 158 158 161 172 177 170 166 178 193 179 169 183 218 215 217 180 159 155 134 125 105 86 67 59 62 53 36 22 7 349 335 332 330 332 329 325 331 334 330 318
157 158 160 160 157 158 167 170 163 163 167 184 196 200 188 163 154 199 250 193 167 157 147 122 98 76 69 70 63 45 24 9 360 348 345 348 351 346 339 338 338 337 336
158 161 165 163 164 167 171 168 162 162 170 178 178 181 201 223 209 170 214 222 218 191 144 125 110 90 72 68 65 41 29 21 15 8 4 10 15 9 3 358 353 347 337
160 167 168 166 169 172 179 177 171 171 176 176 182 181 174 176 200 195 209 213 209 202 138 120 115 104 87 78 70 47 34 28 19 13 19 30 25 16 13 5 360 354 346
167 174 168 167 169 178 180 171 172 179 177 175 188 191 190 186 161 174 184 203 194 197 161 153 134 119 104 91 77 41 41 37 29 23 26 33 33 27 19 8 2 356 352
167 167 169 174 178 176 173 170 172 182 176 180 188 185 184 182 168 170 172 168 190 239 219 195 109 123 116 102 82 41 56 52 47 41 43 49 42 32 24 16 7 0 356
153 159 170 173 177 173 170 168 180 181 171 177 181 181 180 171 163 159 158 160 167 199 232 183 140 130 122 109 93 61 73 64 67 65 61 55 42 33 25 17 10 6 2
164 165 173 178 179 176 174 176 180 179 174 177 174 175 177 168 154 147 154 153 155 171 207 174 137 137 124 121 110 82 81 90 90 90 73 60 49 39 28 20 17 14 8
155 167 172 177 182 178 175 180 183 177 179 178 177 179 178 160 155 155 148 155 169 166 203 220 94 114 126 131 116 92 75 70 105 99 85 72 61 46 32 24 19 15 11
157 163 164 172 177 174 175 180 183 183 184 184 184 175 174 162 161 159 157 169 182 179 182 204 174 144 139 141 135 132 99 75 98 118 103 87 71 52 35 29 23 17 13
148 153 162 175 178 178 181 183 180 180 181 181 177 174 173 166 172 167 166 172 177 174 171 179 177 148 139 134 128 136 168 324 288 143 128 93 70 55 37 35 28 19 14
141 153 168 174 173 173 175 173 169 170 169 167 164 167 172 175 178 173 174 177 171 172 174 185 184 175 173 159 159 186 207 205 218 178 185 167 102 67 50 42 34 21 15
140 151 159 167 169 168 173 169 164 167 167 160 156 158 163 163 167 172 174 176 172 176 181 192 193 180 186 182 201 190 195 183 209 186 177 255 87 37 23 25 33 22 18
136 157 174 174 177 181 175 178 171 169 170 170 168 163 156 156 169 174 171 172 172 179 187 187 191 198 205 199 180 178 165 160 226 209 165 223 159 144 75 49 30 29 27
191 194 195 189 191 186 184 186 185 172 174 175 173 171 173 179 173 168 175 174 178 188 185 177 190 203 197 188 169 174 181 183 203 179 143 205 182 178 182 83 54 36 35
239 228 219 212 205 200 193 192 187 178 176 181 181 180 181 178 180 172 171 172 177 182 183 180 181 186 173 166 167 172 172 143 95 119 139 178 192 182 147 99 97 60 45
256 243 231 221 219 215 204 198 188 179 189 195 192 189 185 185 193 188 177 174 176 186 176 156 148 151 148 152 151 132 140 143 176 216 188 162 166 142 140 191 230 189 78
254 246 245 233 227 226 213 208 197 192 198 199 198 200 201 196 198 193 181 178 188 193 170 161 160 162 157 165 159 158 164 162 159 196 197 156 149 127 160 270 213 275 342